Location: Alpha Ridge Park
(39.3209°N, 76.9128°W)
Time: 15:58:09
(UTC-04:00)

Transit 2A - Pass Details

Date: 01 June 2019
Orbit: 593 x 966 km, 66.7° (Epoch: 18 June)

Event Time Altitude Azimuth Distance (km) Brightness Sun altitude
Rises 16:59:29 0° 311° (NW) 3,427 9.9 37.8°
Reaches altitude 10° 17:03:28 10° 285° (WNW) 2,395 9.8 37.0°
Maximum altitude 17:05:49 13° 260° (W) 2,139 9.7 36.6°
Drops below altitude 10° 17:08:05 10° 234° (SW) 2,277 9.3 36.2°
Sets 17:11:41 0° 206° (SSW) 3,103 9.4 35.5°
